User: anonymous   Login
Location: Calberlah
(52.4230°N, 10.6240°E)
Time: 12:14:23
(UTC+00:00)
Language:

Cosmos 2154 Rocket - Orbit

View from above orbital plane
View from above orbital plane
View from above satellite
View from above satellite

Ground track
Ground track

The orbit data is extracted from the following two-line orbital elements,

1 21667U 91059B   25196.86818093  .00000007  00000-0 -80268-5 0  9999
2 21667  82.9076 331.6255 0019649 310.6678 161.5202 13.75254454700959
Epoch (UTC): 15 July 2025 20:50:10
Eccentricity: 0.0019649
inclination: 82.9076°
perigee height: 966 km
apogee height: 995 km
right ascension of ascending node: 331.6255°
argument of perigee: 310.6678°
revolutions per day: 13.75254454
mean anomaly at epoch: 161.5202°
orbit number at epoch: 70095

The dashed part of the orbit path shows where the satellite is in the earth's shadow,  

DLR